Content
SEND FEEDBACK

Daily
Averages
Monthly
Summary
United States of America

VESTA, MINNESOTA


Home > North America > United States > Minnesota
Elevation: 1060 feet     Latitude: 44 30N     Longitude: 095 25W

WEATHER
 
SELECT A DAY
Number of Records: 195,072;   Date Range: 1/1/95 - 9/3/14
 
SHARE

PRINT THIS DATA

[ ← Previous Day ]
WEATHER ALMANAC - JANUARY 31, 2013
[ Next Day → ]
[ °C ]   °F
Weather ElementAverageHighLow
Temperature-6.6 °F-2.9 °F (1:53 am)-9.9 °F (11:53 pm)
Dewpoint-14.5 °F-9 °F (1:53 am)-18 °F (11:53 pm)
Humidity68.7 %75 % (1:53 am)65 % (10:23 am)
Barometer30.19 in30.42 in (9:53 pm)29.96 in (1:53 am)
Wind Speed19 mph25.3 mph (10:48 am)
Wind Gust34.5 mph (10:23 am)
Weather ElementAverage
Visibility6.7 mi
Wind DirectionWNW (305.9 °)

Weather ElementTotal
Precipitation---
Heating Degree Days71.4 (Base 65)
Averaged from 34 records on January 31, 2013
WEATHER CONDITIONS BREAKOUT
WIND DIRECTION BREAKOUT
WEATHER BY HOUR - JANUARY 31, 2013
[ °C ]   °F
Local TimeTemperatureDewpointHumidityBarometerVisibilityWind DirectionWind SpeedGust SpeedPrecipitationEventsConditions
1:53 AM-2.9 °F-9.0 °F75 %29.96 in6.0 miNW (310°)13.8 mphHaze
2:53 AM-2.9 °F-9.9 °F72 %29.97 in8.0 miNW (310°)16.1 mph24.2 mphOvercast
3:53 AM-4.0 °F-11.0 °F72 %29.98 in10.0 miNW (310°)11.5 mph20.7 mphScattered Clouds
4:53 AM-6.0 °F-13.0 °F72 %30.02 in10.0 miWNW (300°)19.6 mph25.3 mphClear
5:53 AM-7.1 °F-13.0 °F75 %30.05 in10.0 miWNW (300°)16.1 mph23.0 mphClear
6:53 AM-9.0 °F-15.0 °F75 %30.09 in10.0 miWNW (300°)17.3 mphPartly Cloudy
7:53 AM-9.0 °F-16.1 °F71 %30.12 in10.0 miWNW (300°)17.3 mph26.5 mphClear
8:53 AM-9.0 °F-16.1 °F71 %30.15 in10.0 miWNW (300°)18.4 mphPartly Cloudy
9:50 AM-9.4 °F-16.6 °F71 %30.09 in2.5 miNW (310°)19.6 mph31.1 mph0.00 inSnowLight Snow
9:53 AM-8.0 °F-16.1 °F68 %30.18 in3.0 miNW (310°)19.6 mph31.1 mph0.00 inSnowLight Snow
10:13 AM-7.6 °F-14.8 °F71 %30.11 in2.5 miNW (310°)18.4 mph26.5 mph0.00 inSnowLight Snow
10:23 AM-7.6 °F-16.6 °F65 %30.11 in3.0 miNW (310°)19.6 mph34.5 mph0.00 inSnowLight Snow
10:39 AM-7.6 °F-14.8 °F71 %30.12 in2.5 miNW (310°)23.0 mph33.4 mph0.00 inSnowLight Snow
10:48 AM-7.6 °F-14.8 °F71 %30.13 in3.0 miNW (310°)25.3 mph34.5 mph0.00 inSnowLight Snow
10:53 AM-7.1 °F-15.0 °F68 %30.22 in2.5 miNW (310°)18.4 mph34.5 mph0.00 inSnowLight Snow
10:57 AM-7.6 °F-14.8 °F71 %30.13 in3.0 miNW (310°)20.7 mph34.5 mph0.00 inHaze
11:10 AM-7.6 °F-14.8 °F71 %30.13 in7.0 miNW (310°)24.2 mph32.2 mph0.00 inOvercast
11:43 AM-5.8 °F-14.8 °F65 %30.14 in2.5 miNW (310°)24.2 mph34.5 mph0.00 inSnowLight Snow
11:50 AM-5.8 °F-14.8 °F65 %30.14 in4.0 miNW (320°)18.4 mph33.4 mph0.00 inSnowLight Snow
11:53 AM-6.0 °F-14.1 °F68 %30.24 in5.0 miNW (310°)21.9 mph32.2 mph0.00 inHaze
12:11 PM-5.8 °F-14.8 °F65 %30.15 in2.5 miNW (310°)24.2 mph34.5 mph0.00 inSnowLight Snow
12:19 PM-5.8 °F-14.8 °F65 %30.15 in4.0 miNW (310°)25.3 mph31.1 mph0.00 inSnowLight Snow
12:53 PM-4.0 °F-13.0 °F65 %30.25 in5.0 miNW (310°)24.2 mph33.4 mph0.00 inHaze
1:53 PM-4.0 °F-13.0 °F65 %30.27 in4.0 miWNW (300°)21.9 mph31.1 mphHaze
2:53 PM-2.9 °F-11.9 °F65 %30.29 in9.0 miWNW (300°)20.7 mph29.9 mphOvercast
3:53 PM-4.0 °F-13.0 °F65 %30.32 in10.0 miWNW (300°)24.2 mph28.8 mphOvercast
4:35 PM-5.8 °F-14.8 °F65 %30.24 in10.0 miNW (310°)18.4 mph25.3 mphScattered Clouds
4:53 PM-5.1 °F-14.1 °F65 %30.34 in10.0 miWNW (300°)20.7 mph26.5 mphPartly Cloudy
5:53 PM-7.1 °F-15.0 °F68 %30.35 in10.0 miNW (310°)12.7 mphPartly Cloudy
6:53 PM-7.1 °F-15.0 °F68 %30.38 in10.0 miWNW (300°)13.8 mph21.9 mphClear
7:53 PM-8.0 °F-16.1 °F68 %30.39 in10.0 miWNW (300°)16.1 mph21.9 mphClear
8:53 PM-8.0 °F-16.1 °F68 %30.40 in10.0 miWNW (300°)15.0 mphClear
9:53 PM-9.0 °F-17.0 °F68 %30.42 in10.0 miWNW (290°)11.5 mphClear
11:53 PM-9.9 °F-18.0 °F68 %30.42 in10.0 miWNW (300°)12.7 mphClear
Hourly data recorded from KRWF, located miles away from Vesta, Minnesota







STORIES FROM OUR PARTNERS